Location: Morosaglia
(42.4360°N, 9.3069°E)
Time: 19:10:43
(UTC+00:00)

Cosmos 1408 - Pass Details

Date: 07 June 2020
Orbit: 469 x 496 km, 82.6° (Epoch: 02 July)

Event Time Altitude Azimuth Distance (km) Brightness Sun altitude
Exits shadow 01:49:32 27° 172° (S) 975 3.7 -16.4°
Maximum altitude 01:51:24 68° 96° (E) 534 2.8 -16.2°
Drops below altitude 10° 01:55:04 10° 13° (NNE) 1,685 6.4 -15.8°
Sets 01:57:10 0° 11° (N) 2,567 7.4 -15.6°
